User: anonymous   Login
Location: Dehesa de la Cepeda
(40.6574°N, 4.3013°W)
Time: 17:55:00
(UTC+00:00)
Language:

Transit 2A Rocket - Orbit

View from above orbital plane
View from above orbital plane
View from above satellite
View from above satellite

Ground track
Ground track

The orbit data is extracted from the following two-line orbital elements,

1    47U 60007C   21208.02277372  .00000041  00000-0  34265-4 0  9996
2    47  66.6654 153.2024 0226806   5.3195 355.0238 14.42162073193469
Epoch (UTC): 27 July 2021 00:32:47
Eccentricity: 0.0226806
inclination: 66.6654°
perigee height: 589 km
apogee height: 913 km
right ascension of ascending node: 153.2024°
argument of perigee: 5.3195°
revolutions per day: 14.42162073
mean anomaly at epoch: 355.0238°
orbit number at epoch: 19346

The dashed part of the orbit path shows where the satellite is in the earth's shadow,  

DLR